| time (UTC) | temp C | wind direction | speed KPH | gust KPH | rain 1hr cm | rain 24hr cm | rain mn cm | humidity % | barometer mb |
| 20260502231902 | 22 | 45 | 8.0 | 8.0 | 0.00 | 0.00 | 0.00 | 25 | 1013.5 |
| 20260502230802 | 21 | 158 | 3.2 | 3.2 | 0.00 | 0.00 | 0.00 | 27 | 1013.9 |
| 20260502225702 | 22 | 45 | 4.8 | 4.8 | 0.00 | 0.00 | 0.00 | 27 | 1013.5 |
| 20260502224602 | 21 | 23 | 6.4 | 6.4 | 0.00 | 0.00 | 0.00 | 27 | 1014.2 |
| 20260502222402 | 21 | 45 | 8.0 | 8.0 | 0.00 | 0.00 | 0.00 | 27 | 1014.2 |
| 20260502221102 | 21 | 113 | 3.2 | 11.3 | 0.00 | 0.00 | 0.00 | 27 | 1014.6 |
| 20260502220002 | 21 | 158 | 3.2 | 8.0 | 0.00 | 0.00 | 0.00 | 25 | 1014.6 |
| 20260502213702 | 21 | 23 | 9.7 | 9.7 | 0.00 | 0.00 | 0.00 | 31 | 1014.9 |
| 20260502212602 | 20 | 113 | 3.2 | 11.3 | 0.00 | 0.00 | 0.00 | 29 | 1015.2 |
| 20260502211502 | 20 | 45 | 4.8 | 12.9 | 0.00 | 0.00 | 0.00 | 30 | 1015.2 |
| 20260502210302 | 20 | 90 | 6.4 | 8.0 | 0.00 | 0.00 | 0.00 | 30 | 1015.6 |
| 20260502205202 | 20 | 68 | 4.8 | 8.0 | 0.00 | 0.00 | 0.00 | 30 | 1015.6 |
| 20260502204102 | 20 | 90 | 8.0 | 8.0 | 0.00 | 0.00 | 0.00 | 31 | 1015.9 |
| 20260502203003 | 20 | 68 | 8.0 | 12.9 | 0.00 | 0.00 | 0.00 | 30 | 1015.9 |
| 20260502202002 | 20 | 0 | 3.2 | 6.4 | 0.00 | 0.00 | 0.00 | 34 | 1016.3 |
| 20260502200902 | 19 | 45 | 3.2 | 3.2 | 0.00 | 0.00 | 0.00 | 32 | 1016.3 |
| 20260502195802 | 18 | 45 | 8.0 | 12.9 | 0.00 | 0.00 | 0.00 | 35 | 1016.6 |
| 20260502193602 | 18 | 45 | 9.7 | 14.5 | 0.00 | 0.00 | 0.00 | 35 | 1016.9 |
| 20260502192602 | 18 | 338 | 4.8 | 12.9 | 0.00 | 0.00 | 0.00 | 35 | 1017.3 |
| 20260502191502 | 18 | 180 | 3.2 | 6.4 | 0.00 | 0.00 | 0.00 | 37 | 1017.3 |
| 20260502190402 | 17 | 293 | 8.0 | 11.3 | 0.00 | 0.00 | 0.00 | 35 | 1017.6 |
| 20260502185305 | 17 | 45 | 6.4 | 8.0 | 0.00 | 0.00 | 0.00 | 35 | 1017.6 |
| 20260502184202 | 17 | 45 | 1.6 | 6.4 | 0.00 | 0.00 | 0.00 | 39 | 1017.9 |
| 20260502183202 | 17 | 0 | 4.8 | 11.3 | 0.00 | 0.00 | 0.00 | 35 | 1017.9 |
| 20260502182102 | 16 | 293 | 14.5 | 20.9 | 0.00 | 0.00 | 0.00 | 37 | 1017.9 |
| 20260502181002 | 16 | 68 | 11.3 | 11.3 | 0.00 | 0.00 | 0.00 | 37 | 1018.3 |
| 20260502170502 | 14 | 338 | 3.2 | 11.3 | 0.00 | 0.00 | 0.00 | 40 | 1019.0 |
| 20260502164302 | 15 | 0 | 3.2 | 6.4 | 0.00 | 0.00 | 0.00 | 40 | 1019.3 |
| 20260502163202 | 14 | 158 | 3.2 | 4.8 | 0.00 | 0.00 | 0.00 | 40 | 1019.3 |
| 20260502162102 | 13 | 45 | 6.4 | 6.4 | 0.00 | 0.00 | 0.00 | 44 | 1019.3 |
| 20260502151202 | 11 | 270 | 3.2 | 6.4 | 0.00 | 0.00 | 0.00 | 51 | 1019.6 |
| 20260502122702 | 1 | 23 | 3.2 | 3.2 | 0.00 | 0.00 | 0.00 | 74 | 1019.3 |
| 20260502121702 | 1 | 45 | 0.0 | 3.2 | 0.00 | 0.00 | 0.00 | 75 | 1019.3 |
| 20260502120602 | 1 | 45 | 3.2 | 3.2 | 0.00 | 0.00 | 0.00 | 76 | 1019.3 |
| 20260502115502 | 1 | 68 | 0.0 | 0.0 | 0.00 | 0.00 | 0.00 | 78 | 1019.3 |
| 20260502112102 | 1 | 113 | 1.6 | 3.2 | 0.00 | 0.00 | 0.00 | 75 | 1019.3 |
| 20260502111101 | 1 | 0 | 3.2 | 3.2 | 0.00 | 0.00 | 0.00 | 75 | 1019.0 |
| 20260502110003 | 1 | 23 | 3.2 | 3.2 | 0.00 | 0.00 | 0.00 | 75 | 1019.3 |
| 20260502103702 | 1 | 45 | 0.0 | 0.0 | 0.00 | 0.00 | 0.00 | 75 | 1019.3 |
| 20260502102502 | 1 | 23 | 3.2 | 3.2 | 0.00 | 0.00 | 0.00 | 75 | 1019.3 |
| 20260502101402 | 1 | 0 | 3.2 | 3.2 | 0.00 | 0.00 | 0.00 | 76 | 1019.0 |
| 20260502100302 | 1 | 45 | 3.2 | 3.2 | 0.00 | 0.00 | 0.00 | 76 | 1019.3 |
| 20260502071302 | 2 | 23 | 0.0 | 0.0 | 0.00 | 0.00 | 0.00 | 69 | 1018.6 |
| 20260502065102 | 3 | 158 | 0.0 | 0.0 | 0.00 | 0.00 | 0.00 | 65 | 1019.0 |
| 20260502064003 | 3 | 158 | 0.0 | 0.0 | 0.00 | 0.00 | 0.00 | 65 | 1019.0 |
| 20260502062903 | 3 | 90 | 0.0 | 0.0 | 0.00 | 0.00 | 0.00 | 65 | 1019.0 |
| 20260502060702 | 3 | 158 | 0.0 | 0.0 | 0.00 | 0.00 | 0.00 | 65 | 1019.0 |
| 20260502055502 | 3 | 158 | 0.0 | 0.0 | 0.00 | 0.00 | 0.00 | 63 | 1019.0 |
| 20260502054302 | 3 | 158 | 0.0 | 0.0 | 0.00 | 0.00 | 0.00 | 61 | 1019.0 |
| 20260502052702 | 3 | 158 | 0.0 | 0.0 | 0.00 | 0.00 | 0.00 | 61 | 1018.6 |
| 20260502051302 | 4 | 158 | 0.0 | 0.0 | 0.00 | 0.00 | 0.00 | 60 | 1018.6 |
| 20260502050203 | 4 | 158 | 0.0 | 0.0 | 0.00 | 0.00 | 0.00 | 60 | 1018.3 |
| 20260502045305 | 4 | 158 | 0.0 | 0.0 | 0.00 | 0.00 | 0.00 | 59 | 1018.6 |
| 20260502042903 | 5 | 158 | 0.0 | 0.0 | 0.00 | 0.00 | 0.00 | 55 | 1018.3 |
| 20260502041702 | 5 | 158 | 0.0 | 0.0 | 0.00 | 0.00 | 0.00 | 54 | 1018.3 |
| 20260502040602 | 5 | 158 | 0.0 | 0.0 | 0.00 | 0.00 | 0.00 | 54 | 1018.6 |
| 20260502033902 | 5 | 158 | 0.0 | 0.0 | 0.00 | 0.00 | 0.00 | 53 | 1018.3 |
| 20260502032802 | 5 | 158 | 0.0 | 0.0 | 0.00 | 0.00 | 0.00 | 51 | 1018.3 |
| 20260502031602 | 6 | 158 | 0.0 | 0.0 | 0.00 | 0.00 | 0.00 | 50 | 1017.9 |
| 20260502030202 | 6 | 158 | 0.0 | 0.0 | 0.00 | 0.00 | 0.00 | 50 | 1018.3 |
| 20260502025002 | 6 | 158 | 0.0 | 0.0 | 0.00 | 0.00 | 0.00 | 50 | 1017.6 |
| 20260502023902 | 7 | 158 | 0.0 | 0.0 | 0.00 | 0.00 | 0.00 | 50 | 1017.6 |
| 20260502022802 | 7 | 158 | 0.0 | 0.0 | 0.00 | 0.00 | 0.00 | 49 | 1017.6 |
| 20260502021702 | 7 | 158 | 0.0 | 0.0 | 0.00 | 0.00 | 0.00 | 48 | 1017.6 |
| 20260502020602 | 8 | 158 | 0.0 | 0.0 | 0.00 | 0.00 | 0.00 | 46 | 1017.6 |
| 20260502015402 | 8 | 158 | 0.0 | 1.6 | 0.00 | 0.00 | 0.00 | 45 | 1017.3 |
| 20260502014303 | 8 | 135 | 3.2 | 3.2 | 0.00 | 0.00 | 0.00 | 44 | 1017.6 |
| 20260502013302 | 9 | 158 | 3.2 | 3.2 | 0.00 | 0.00 | 0.00 | 43 | 1017.3 |
| 20260502012202 | 10 | 158 | 1.6 | 4.8 | 0.00 | 0.00 | 0.00 | 40 | 1016.9 |
| 20260502005902 | 11 | 180 | 4.8 | 4.8 | 0.00 | 0.00 | 0.00 | 40 | 1016.6 |
| 20260502004802 | 11 | 203 | 8.0 | 8.0 | 0.00 | 0.00 | 0.00 | 37 | 1016.9 |
| 20260502003603 | 12 | 158 | 4.8 | 6.4 | 0.00 | 0.00 | 0.00 | 37 | 1016.6 |
| 20260502001302 | 12 | 203 | 3.2 | 6.4 | 0.00 | 0.00 | 0.00 | 35 | 1016.6 |
| 20260502000302 | 13 | 135 | 8.0 | 12.9 | 0.00 | 0.00 | 0.00 | 35 | 1016.6 |
| 20260501235202 | 14 | 180 | 4.8 | 11.3 | 0.00 | 0.00 | 0.00 | 34 | 1016.3 |
| 20260501234102 | 15 | 180 | 6.4 | 9.7 | 0.00 | 0.00 | 0.00 | 32 | 1016.3 |
| 20260501233003 | 15 | 113 | 6.4 | 6.4 | 0.00 | 0.00 | 0.00 | 31 | 1016.6 |